User: anonymous   Login
Location: Unspecified
(0.0000°N, 0.0000°E)
Time: 08:48:32
(UTC+02:00)
Language:

Hubble Space Telescope - Orbit

View from above orbital plane
View from above orbital plane
View from above satellite
View from above satellite

Ground track
Ground track

The orbit data is extracted from the following two-line orbital elements,

1 20580U 90037B   17205.20416819 +.00000426 +00000-0 +15232-4 0  9999
2 20580 028.4695 122.9129 0002697 207.5458 305.8954 15.08803130295887
Epoch (UTC): 24 July 2017 04:54:00
Eccentricity: 0.0002697
inclination: 28.4695°
perigee height: 538 km
apogee height: 542 km
right ascension of ascending node: 122.9129°
argument of perigee: 207.5458°
revolutions per day: 15.08803130
mean anomaly at epoch: 305.8954°
orbit number at epoch: 29588

The dashed part of the orbit path shows where the satellite is in the earth's shadow,  

DLR